SL-14 R/B

Satellite information

Favourite Embed

Satellite Type and Status

ROCKET BODYIN ORBIT

Key statistics

Satellite SL-14 R/B at a glance.

Uptime

13497

Days in orbit

Revolutions

≈ 12.4

Per day

Orbit

LEO

Low Earth Orbit

Inclination

73.6

Latest

Satellite identification and parameters

Extended collection of information and parameters for SL-14 R/B.

Object identification

Identified? True

Debris? False

Object name: SL-14 R/B

International designator: 1988-046B

Object number (NORAD): 19196

Object ID (CCSDS): 19196

Country: COMMONWEALTH OF INDEPENDENT STATES (CIS)

Current information (Y/N): Y

RCS size: LARGE

Orbital parameters

Period: 115.998 minutes

Inclination: 73.5992 deg

SMA: 7878.793 km

Apoapsis: 1516.641 km

Periapsis: 1484.675 km

RAAN: 265.0211 deg

Eccentricy: 0.0020286

Argument of periapsis: 33.9962 deg

Mean anomaly: 77.9142 deg

Mean motion: 12.41404224 rev/day

Mean motion (dot): -0.00000036 rev/day2

B* drag term: -0.00013585 1/REarth

Two-line elements (TLE)

Creation date: May 12, 2025, 2:31 a.m.

Reference frame: TEME

Reference center: EARTH

Epoch: May 11, 2025, 7:56 p.m. UTC

TLE line 0: 0 SL-14 R/B

TLE line 1: 1 19196U 88046B 25131.83108494 -.00000036 00000-0 -13585-3 0 9997

TLE line 2: 2 19196 73.5992 265.0211 0020286 33.9962 77.9142 12.41404224674517

Live tracking on map

Real-time ground track for satellite SL-14 R/B.

In-orbit conjunctions

A list of the most updated potential collisions computed for object SL-14 R/B.

Target Orbit TCA Probability of collision Miss distance Type
DELTA 1 DEB SSO 2025-05-13 22:13:56 0.0001684513 178.0 (m) DEBRIS

Associated space launch

A satellite for the GEO-IK geodetic system

SL-14 R/B was lifted into orbit during the mission ‘Tsiklon-3 | Geo-IK 10’, on board a Tsiklon-3 space rocket.

The launch took place on May 30, 1988, 8 a.m. from 32/1.

For more information about the launch, click the button.

Launch to space Tsiklon-3 | Geo-IK 10
Tsiklon-3 | Geo-IK 10

Agency: N/A

Status: Launch Successful

Launch date: May 30, 1988, 8 a.m. UTC

Rocket: Tsiklon-3

Launch pad: 32/1

Location: Plesetsk Cosmodrome, Russian Federation

...

Latest news about this satellite

There are no fresh news available about this satellite. Check back as we update our databases every day.


Newsletter sign-up

Weekly statistics, charts and insights to help you stay on top of the space industry.